#Datum;Uhrzeit;WR;Pac;DaySum;Status;WR;Pac;DaySum;Status;Pdc1;Udc;Temp;WR;Pac;DaySum;Status;Pdc1;Udc;Temp;WR;Pac;DaySum;Status;Pdc1;Udc;Temp;WR;Pac;DaySum;Status;Pdc1;Pdc2;Udc1;Udc2;Temp;WR;Pac;DaySum;Status;Pdc1;Pdc2;Udc1;Udc2;Temp;WR;Pac;DaySum;Status;Pdc1;Udc;Temp;WR;Pac;DaySum;Status;Pdc1;Udc;Temp;WR;Pac;DaySum;Status;Pdc1;Udc;Temp
30.01.21;23:55:00;1;809;13862;0;2;0;3443;0;0;0;0;3;0;2113;0;0;0;0;4;0;2934;0;0;0;0;5;0;0;0;0;0;0;0;0;6;0;5053;0;0;0;0;0;0;7;0;3853;0;0;0;0;8;0;3870;0;0;0;0;9;0;2070;0;0;0;0
30.01.21;23:50:00;1;572;13790;0;2;0;3443;0;0;0;0;3;0;2113;0;0;0;0;4;0;2934;0;0;0;0;5;0;0;0;0;0;0;0;0;6;0;5053;0;0;0;0;0;0;7;0;3853;0;0;0;0;8;0;3870;0;0;0;0;9;0;2070;0;0;0;0
30.01.21;23:45:00;1;502;13743;0;2;0;3443;0;0;0;0;3;0;2113;0;0;0;0;4;0;2934;0;0;0;0;5;0;0;0;0;0;0;0;0;6;0;5053;0;0;0;0;0;0;7;0;3853;0;0;0;0;8;0;3870;0;0;0;0;9;0;2070;0;0;0;0
30.01.21;23:40:00;1;514;13701;0;2;0;3443;0;0;0;0;3;0;2113;0;0;0;0;4;0;2934;0;0;0;0;5;0;0;0;0;0;0;0;0;6;0;5053;0;0;0;0;0;0;7;0;3853;0;0;0;0;8;0;3870;0;0;0;0;9;0;2070;0;0;0;0
30.01.21;23:35:00;1;457;13658;0;2;0;3443;0;0;0;0;3;0;2113;0;0;0;0;4;0;2934;0;0;0;0;5;0;0;0;0;0;0;0;0;6;0;5053;0;0;0;0;0;0;7;0;3853;0;0;0;0;8;0;3870;0;0;0;0;9;0;2070;0;0;0;0
30.01.21;23:30:00;1;470;13619;0;2;0;3443;0;0;0;0;3;0;2113;0;0;0;0;4;0;2934;0;0;0;0;5;0;0;0;0;0;0;0;0;6;0;5053;0;0;0;0;0;0;7;0;3853;0;0;0;0;8;0;3870;0;0;0;0;9;0;2070;0;0;0;0
30.01.21;23:25:00;1;790;13580;0;2;0;3443;0;0;0;0;3;0;2113;0;0;0;0;4;0;2934;0;0;0;0;5;0;0;0;0;0;0;0;0;6;0;5053;0;0;0;0;0;0;7;0;3853;0;0;0;0;8;0;3870;0;0;0;0;9;0;2070;0;0;0;0
30.01.21;23:20:00;1;481;13508;0;2;0;3443;0;0;0;0;3;0;2113;0;0;0;0;4;0;2934;0;0;0;0;5;0;0;0;0;0;0;0;0;6;0;5053;0;0;0;0;0;0;7;0;3853;0;0;0;0;8;0;3870;0;0;0;0;9;0;2070;0;0;0;0
30.01.21;23:15:00;1;488;13468;0;2;0;3443;0;0;0;0;3;0;2113;0;0;0;0;4;0;2934;0;0;0;0;5;0;0;0;0;0;0;0;0;6;0;5053;0;0;0;0;0;0;7;0;3853;0;0;0;0;8;0;3870;0;0;0;0;9;0;2070;0;0;0;0
30.01.21;23:10:00;1;495;13428;0;2;0;3443;0;0;0;0;3;0;2113;0;0;0;0;4;0;2934;0;0;0;0;5;0;0;0;0;0;0;0;0;6;0;5053;0;0;0;0;0;0;7;0;3853;0;0;0;0;8;0;3870;0;0;0;0;9;0;2070;0;0;0;0
30.01.21;23:05:00;1;466;13387;0;2;0;3443;0;0;0;0;3;0;2113;0;0;0;0;4;0;2934;0;0;0;0;5;0;0;0;0;0;0;0;0;6;0;5053;0;0;0;0;0;0;7;0;3853;0;0;0;0;8;0;3870;0;0;0;0;9;0;2070;0;0;0;0
30.01.21;23:00:00;1;471;13346;0;2;0;3443;0;0;0;0;3;0;2113;0;0;0;0;4;0;2934;0;0;0;0;5;0;0;0;0;0;0;0;0;6;0;5053;0;0;0;0;0;0;7;0;3853;0;0;0;0;8;0;3870;0;0;0;0;9;0;2070;0;0;0;0
30.01.21;22:55:00;1;414;13310;0;2;0;3443;0;0;0;0;3;0;2113;0;0;0;0;4;0;2934;0;0;0;0;5;0;0;0;0;0;0;0;0;6;0;5053;2;0;0;0;0;0;7;0;3853;0;0;0;0;8;0;3870;0;0;0;0;9;0;2070;0;0;0;0
30.01.21;22:50:00;1;874;13276;0;2;0;3443;0;0;0;0;3;0;2113;0;0;0;0;4;0;2934;0;0;0;0;5;0;0;0;0;0;0;0;0;6;0;5053;2;0;0;0;0;0;7;0;3853;0;0;0;0;8;0;3870;0;0;0;0;9;0;2070;0;0;0;0
30.01.21;22:45:00;1;534;13203;0;2;0;3443;0;0;0;0;3;0;2113;0;0;0;0;4;0;2934;0;0;0;0;5;0;0;0;0;0;0;0;0;6;0;5053;2;0;0;0;0;0;7;0;3853;0;0;0;0;8;0;3870;0;0;0;0;9;0;2070;0;0;0;0
30.01.21;22:40:00;1;460;13160;0;2;0;3443;0;0;0;0;3;0;2113;0;0;0;0;4;0;2934;0;0;0;0;5;0;0;0;0;0;0;0;0;6;0;5053;2;0;0;0;0;0;7;0;3853;0;0;0;0;8;0;3870;0;0;0;0;9;0;2070;0;0;0;0
30.01.21;22:35:00;1;467;13122;0;2;0;3443;0;0;0;0;3;0;2113;0;0;0;0;4;0;2934;0;0;0;0;5;0;0;0;0;0;0;0;0;6;0;5053;2;0;0;0;0;0;7;0;3853;0;0;0;0;8;0;3870;0;0;0;0;9;0;2070;0;0;0;0
30.01.21;22:30:00;1;554;13082;0;2;0;3443;0;0;0;0;3;0;2113;0;0;0;0;4;0;2934;0;0;0;0;5;0;0;0;0;0;0;0;0;6;0;5053;2;0;0;0;0;0;7;0;3853;0;0;0;0;8;0;3870;0;0;0;0;9;0;2070;0;0;0;0
30.01.21;22:25:00;1;569;13036;0;2;0;3443;0;0;0;0;3;0;2113;0;0;0;0;4;0;2934;0;0;0;0;5;0;0;0;0;0;0;0;0;6;0;5053;2;0;0;0;0;0;7;0;3853;0;0;0;0;8;0;3870;0;0;0;0;9;0;2070;0;0;0;0
30.01.21;22:20:00;1;984;12988;0;2;0;3443;0;0;0;0;3;0;2113;0;0;0;0;4;0;2934;0;0;0;0;5;0;0;0;0;0;0;0;0;6;0;5053;2;0;0;0;0;0;7;0;3853;0;0;0;0;8;0;3870;0;0;0;0;9;0;2070;0;0;0;0
30.01.21;22:15:00;1;552;12907;0;2;0;3443;0;0;0;0;3;0;2113;0;0;0;0;4;0;2934;0;0;0;0;5;0;0;0;0;0;0;0;0;6;0;5053;2;0;0;0;0;0;7;0;3853;0;0;0;0;8;0;3870;0;0;0;0;9;0;2070;0;0;0;0
30.01.21;22:10:00;1;511;12860;0;2;0;3443;0;0;0;0;3;0;2113;0;0;0;0;4;0;2934;0;0;0;0;5;0;0;0;0;0;0;0;0;6;0;5053;2;0;0;0;0;0;7;0;3853;0;0;0;0;8;0;3870;0;0;0;0;9;0;2070;0;0;0;0
30.01.21;22:05:00;1;550;12818;0;2;0;3443;0;0;0;0;3;0;2113;0;0;0;0;4;0;2934;0;0;0;0;5;0;0;0;0;0;0;0;0;6;0;5053;2;0;0;0;0;0;7;0;3853;0;0;0;0;8;0;3870;0;0;0;0;9;0;2070;0;0;0;0
30.01.21;22:00:00;1;549;12773;0;2;0;3443;0;0;0;0;3;0;2113;0;0;0;0;4;0;2934;0;0;0;0;5;0;0;0;0;0;0;0;0;6;0;5053;2;0;0;0;0;0;7;0;3853;0;0;0;0;8;0;3870;0;0;0;0;9;0;2070;0;0;0;0
30.01.21;21:55:00;1;510;12727;0;2;0;3443;0;0;0;0;3;0;2113;0;0;0;0;4;0;2934;0;0;0;0;5;0;0;0;0;0;0;0;0;6;0;5053;2;0;0;0;0;0;7;0;3853;0;0;0;0;8;0;3870;0;0;0;0;9;0;2070;0;0;0;0
30.01.21;21:50:00;1;422;12684;0;2;0;3443;0;0;0;0;3;0;2113;0;0;0;0;4;0;2934;0;0;0;0;5;0;0;0;0;0;0;0;0;6;0;5053;2;0;0;0;0;0;7;0;3853;0;0;0;0;8;0;3870;0;0;0;0;9;0;2070;0;0;0;0
30.01.21;21:45:00;1;945;12646;0;2;0;3443;0;0;0;0;3;0;2113;0;0;0;0;4;0;2934;0;0;0;0;5;0;0;0;0;0;0;0;0;6;0;5053;2;0;0;0;0;0;7;0;3853;0;0;0;0;8;0;3870;0;0;0;0;9;0;2070;0;0;0;0
30.01.21;21:40:00;1;535;12578;0;2;0;3443;0;0;0;0;3;0;2113;0;0;0;0;4;0;2934;0;0;0;0;5;0;0;0;0;0;0;0;0;6;0;5053;2;0;0;0;0;0;7;0;3853;0;0;0;0;8;0;3870;0;0;0;0;9;0;2070;0;0;0;0
30.01.21;21:35:00;1;557;12531;0;2;0;3443;0;0;0;0;3;0;2113;0;0;0;0;4;0;2934;0;0;0;0;5;0;0;0;0;0;0;0;0;6;0;5053;2;0;0;0;0;0;7;0;3853;0;0;0;0;8;0;3870;0;0;0;0;9;0;2070;0;0;0;0
30.01.21;21:30:00;1;594;12484;0;2;0;3443;0;0;0;0;3;0;2113;0;0;0;0;4;0;2934;0;0;0;0;5;0;0;0;0;0;0;0;0;6;0;5053;2;0;0;0;0;0;7;0;3853;0;0;0;0;8;0;3870;0;0;0;0;9;0;2070;0;0;0;0
30.01.21;21:25:00;1;1582;12434;0;2;0;3443;0;0;0;0;3;0;2113;0;0;0;0;4;0;2934;0;0;0;0;5;0;0;0;0;0;0;0;0;6;0;5053;2;0;0;0;0;0;7;0;3853;0;0;0;0;8;0;3870;0;0;0;0;9;0;2070;0;0;0;0
30.01.21;21:20:00;1;1893;12293;0;2;0;3443;0;0;0;0;3;0;2113;0;0;0;0;4;0;2934;0;0;0;0;5;0;0;0;0;0;0;0;0;6;0;5053;2;0;0;0;0;0;7;0;3853;0;0;0;0;8;0;3870;0;0;0;0;9;0;2070;0;0;0;0
30.01.21;21:15:00;1;584;12132;0;2;0;3443;0;0;0;0;3;0;2113;0;0;0;0;4;0;2934;0;0;0;0;5;0;0;0;0;0;0;0;0;6;0;5053;2;0;0;0;0;0;7;0;3853;0;0;0;0;8;0;3870;0;0;0;0;9;0;2070;0;0;0;0
30.01.21;21:10:00;1;546;12083;0;2;0;3443;0;0;0;0;3;0;2113;0;0;0;0;4;0;2934;0;0;0;0;5;0;0;0;0;0;0;0;0;6;0;5053;2;0;0;0;0;0;7;0;3853;0;0;0;0;8;0;3870;0;0;0;0;9;0;2070;0;0;0;0
30.01.21;21:05:00;1;763;12037;0;2;0;3443;0;0;0;0;3;0;2113;0;0;0;0;4;0;2934;0;0;0;0;5;0;0;0;0;0;0;0;0;6;0;5053;2;0;0;0;0;0;7;0;3853;0;0;0;0;8;0;3870;0;0;0;0;9;0;2070;0;0;0;0
30.01.21;21:00:00;1;630;11954;0;2;0;3443;0;0;0;0;3;0;2113;0;0;0;0;4;0;2934;0;0;0;0;5;0;0;0;0;0;0;0;0;6;0;5053;2;0;0;0;0;0;7;0;3853;0;0;0;0;8;0;3870;0;0;0;0;9;0;2070;0;0;0;0
30.01.21;20:55:00;1;600;11901;0;2;0;3443;0;0;0;0;3;0;2113;0;0;0;0;4;0;2934;0;0;0;0;5;0;0;0;0;0;0;0;0;6;0;5053;2;0;0;0;0;0;7;0;3853;0;0;0;0;8;0;3870;0;0;0;0;9;0;2070;0;0;0;0
30.01.21;20:50:00;1;600;11851;0;2;0;3443;0;0;0;0;3;0;2113;0;0;0;0;4;0;2934;0;0;0;0;5;0;0;0;0;0;0;0;0;6;0;5053;2;0;0;0;0;0;7;0;3853;0;0;0;0;8;0;3870;0;0;0;0;9;0;2070;0;0;0;0
30.01.21;20:45:00;1;605;11801;0;2;0;3443;0;0;0;0;3;0;2113;0;0;0;0;4;0;2934;0;0;0;0;5;0;0;0;0;0;0;0;0;6;0;5053;2;0;0;0;0;0;7;0;3853;0;0;0;0;8;0;3870;0;0;0;0;9;0;2070;0;0;0;0
30.01.21;20:40:00;1;571;11749;0;2;0;3443;0;0;0;0;3;0;2113;0;0;0;0;4;0;2934;0;0;0;0;5;0;0;0;0;0;0;0;0;6;0;5053;2;0;0;0;0;0;7;0;3853;0;0;0;0;8;0;3870;0;0;0;0;9;0;2070;0;0;0;0
30.01.21;20:35:00;1;578;11696;0;2;0;3443;0;0;0;0;3;0;2113;0;0;0;0;4;0;2934;0;0;0;0;5;0;0;0;0;0;0;0;0;6;0;5053;2;0;0;0;0;0;7;0;3853;0;0;0;0;8;0;3870;0;0;0;0;9;0;2070;0;0;0;0
30.01.21;20:30:00;1;592;11648;0;2;0;3443;0;0;0;0;3;0;2113;0;0;0;0;4;0;2934;0;0;0;0;5;0;0;0;0;0;0;0;0;6;0;5053;2;0;0;0;0;0;7;0;3853;0;0;0;0;8;0;3870;0;0;0;0;9;0;2070;0;0;0;0
30.01.21;20:25:00;1;569;11597;0;2;0;3443;0;0;0;0;3;0;2113;0;0;0;0;4;0;2934;0;0;0;0;5;0;0;0;0;0;0;0;0;6;0;5053;2;0;0;0;0;0;7;0;3853;0;0;0;0;8;0;3870;0;0;0;0;9;0;2070;0;0;0;0
30.01.21;20:20:00;1;1167;11550;0;2;0;3443;0;0;0;0;3;0;2113;0;0;0;0;4;0;2934;0;0;0;0;5;0;0;0;0;0;0;0;0;6;0;5053;2;0;0;0;0;0;7;0;3853;0;0;0;0;8;0;3870;0;0;0;0;9;0;2070;0;0;0;0
30.01.21;20:15:00;1;664;11453;0;2;0;3443;0;0;0;0;3;0;2113;0;0;0;0;4;0;2934;0;0;0;0;5;0;0;0;0;0;0;0;0;6;0;5053;2;0;0;0;0;0;7;0;3853;0;0;0;0;8;0;3870;0;0;0;0;9;0;2070;0;0;0;0
30.01.21;20:10:00;1;968;11405;0;2;0;3443;0;0;0;0;3;0;2113;0;0;0;0;4;0;2934;0;0;0;0;5;0;0;0;0;0;0;0;0;6;0;5053;2;0;0;0;0;0;7;0;3853;0;0;0;0;8;0;3870;0;0;0;0;9;0;2070;0;0;0;0
30.01.21;20:05:00;1;674;11315;0;2;0;3443;0;0;0;0;3;0;2113;0;0;0;0;4;0;2934;0;0;0;0;5;0;0;0;0;0;0;0;0;6;0;5053;2;0;0;0;0;0;7;0;3853;0;0;0;0;8;0;3870;0;0;0;0;9;0;2070;0;0;0;0
30.01.21;20:00:00;1;540;11258;0;2;0;3443;0;0;0;0;3;0;2113;0;0;0;0;4;0;2934;0;0;0;0;5;0;0;0;0;0;0;0;0;6;0;5053;2;0;0;0;0;0;7;0;3853;0;0;0;0;8;0;3870;0;0;0;0;9;0;2070;0;0;0;0
30.01.21;19:55:00;1;540;11212;0;2;0;3443;0;0;0;0;3;0;2113;0;0;0;0;4;0;2934;0;0;0;0;5;0;0;0;0;0;0;0;0;6;0;5053;2;0;0;0;0;0;7;0;3853;0;0;0;0;8;0;3870;0;0;0;0;9;0;2070;0;0;0;0
30.01.21;19:50:00;1;567;11167;0;2;0;3443;0;0;0;0;3;0;2113;0;0;0;0;4;0;2934;0;0;0;0;5;0;0;0;0;0;0;0;0;6;0;5053;2;0;0;0;0;0;7;0;3853;0;0;0;0;8;0;3870;0;0;0;0;9;0;2070;0;0;0;0
30.01.21;19:45:00;1;527;11120;0;2;0;3443;0;0;0;0;3;0;2113;0;0;0;0;4;0;2934;0;0;0;0;5;0;0;0;0;0;0;0;0;6;0;5053;2;0;0;0;0;0;7;0;3853;0;0;0;0;8;0;3870;0;0;0;0;9;0;2070;0;0;0;0
30.01.21;19:40:00;1;587;11075;0;2;0;3443;0;0;0;0;3;0;2113;0;0;0;0;4;0;2934;0;0;0;0;5;0;0;0;0;0;0;0;0;6;0;5053;2;0;0;0;0;0;7;0;3853;0;0;0;0;8;0;3870;0;0;0;0;9;0;2070;0;0;0;0
30.01.21;19:35:00;1;1121;11027;0;2;0;3443;0;0;0;0;3;0;2113;0;0;0;0;4;0;2934;0;0;0;0;5;0;0;0;0;0;0;0;0;6;0;5053;0;0;0;0;0;0;7;0;3853;0;0;0;0;8;0;3870;0;0;0;0;9;0;2070;0;0;0;0
30.01.21;19:30:00;1;891;10941;0;2;0;3443;0;0;0;0;3;0;2113;0;0;0;0;4;0;2934;0;0;0;0;5;0;0;0;0;0;0;0;0;6;0;5053;2;0;0;0;0;0;7;0;3853;0;0;0;0;8;0;3870;0;0;0;0;9;0;2070;0;0;0;0
30.01.21;19:25:00;1;667;10881;0;2;0;3443;0;0;0;0;3;0;2113;0;0;0;0;4;0;2934;0;0;0;0;5;0;0;0;0;0;0;0;0;6;0;5053;2;0;0;0;0;0;7;0;3853;0;0;0;0;8;0;3870;0;0;0;0;9;0;2070;0;0;0;0
30.01.21;19:20:00;1;610;10826;0;2;0;3443;0;0;0;0;3;0;2113;0;0;0;0;4;0;2934;0;0;0;0;5;0;0;0;0;0;0;0;0;6;0;5053;2;0;0;0;0;0;7;0;3853;0;0;0;0;8;0;3870;0;0;0;0;9;0;2070;0;0;0;0
30.01.21;19:15:00;1;583;10775;0;2;0;3443;0;0;0;0;3;0;2113;0;0;0;0;4;0;2934;0;0;0;0;5;0;0;0;0;0;0;0;0;6;0;5053;2;0;0;0;0;0;7;0;3853;0;0;0;0;8;0;3870;0;0;0;0;9;0;2070;0;0;0;0
30.01.21;19:10:00;1;566;10726;0;2;0;3443;0;0;0;0;3;0;2113;0;0;0;0;4;0;2934;0;0;0;0;5;0;0;0;0;0;0;0;0;6;0;5053;2;0;0;0;0;0;7;0;3853;0;0;0;0;8;0;3870;0;0;0;0;9;0;2070;0;0;0;0
30.01.21;19:05:00;1;570;10678;0;2;0;3443;0;0;0;0;3;0;2113;0;0;0;0;4;0;2934;0;0;0;0;5;0;0;0;0;0;0;0;0;6;0;5053;2;0;0;0;0;0;7;0;3853;0;0;0;0;8;0;3870;0;0;0;0;9;0;2070;0;0;0;0
30.01.21;19:00:00;1;613;10631;0;2;0;3443;0;0;0;0;3;0;2113;0;0;0;0;4;0;2934;0;0;0;0;5;0;0;0;0;0;0;0;0;6;0;5053;2;0;0;0;0;0;7;0;3853;0;0;0;0;8;0;3870;0;0;0;0;9;0;2070;0;0;0;0
30.01.21;18:55:00;1;734;10580;0;2;0;3443;0;0;0;0;3;0;2113;0;0;0;0;4;0;2934;0;0;0;0;5;0;0;0;0;0;0;0;0;6;0;5053;2;0;0;0;0;0;7;0;3853;0;0;0;0;8;0;3870;0;0;0;0;9;0;2070;0;0;0;0
30.01.21;18:50:00;1;626;10497;0;2;0;3443;0;0;0;0;3;0;2113;0;0;0;0;4;0;2934;0;0;0;0;5;0;0;0;0;0;0;0;0;6;0;5053;2;0;0;0;0;0;7;0;3853;0;0;0;0;8;0;3870;0;0;0;0;9;0;2070;0;0;0;0
30.01.21;18:45:00;1;678;10444;0;2;0;3443;0;0;0;0;3;0;2113;0;0;0;0;4;0;2934;0;0;0;0;5;0;0;0;0;0;0;0;0;6;0;5053;2;0;0;0;0;0;7;0;3853;0;0;0;0;8;0;3870;0;0;0;0;9;0;2070;0;0;0;0
30.01.21;18:40:00;1;2103;10388;0;2;0;3443;0;0;0;0;3;0;2113;0;0;0;0;4;0;2934;0;0;0;0;5;0;0;0;0;0;0;0;0;6;0;5053;2;0;0;0;0;0;7;0;3853;0;0;0;0;8;0;3870;0;0;0;0;9;0;2070;0;0;0;0
30.01.21;18:35:00;1;4541;10235;0;2;0;3443;0;0;0;0;3;0;2113;0;0;0;0;4;0;2934;0;0;0;0;5;0;0;0;0;0;0;0;0;6;0;5053;2;0;0;0;0;0;7;0;3853;0;0;0;0;8;0;3870;0;0;0;0;9;0;2070;0;0;0;0
30.01.21;18:30:00;1;2270;9866;0;2;0;3443;0;0;0;0;3;0;2113;0;0;0;0;4;0;2934;0;0;0;0;5;0;0;0;0;0;0;0;0;6;0;5053;2;0;0;0;0;0;7;0;3853;0;0;0;0;8;0;3870;0;0;0;0;9;0;2070;0;0;0;0
30.01.21;18:25:00;1;1859;9703;0;2;0;3443;0;0;0;0;3;0;2113;0;0;0;0;4;0;2934;0;0;0;0;5;0;0;0;0;0;0;0;0;6;0;5053;2;0;0;0;0;0;7;0;3853;0;0;0;0;8;0;3870;0;0;0;0;9;0;2070;0;0;0;0
30.01.21;18:20:00;1;1710;9546;0;2;0;3443;0;0;0;0;3;0;2113;0;0;0;0;4;0;2934;0;0;0;0;5;0;0;0;0;0;0;0;0;6;0;5053;2;0;0;0;0;0;7;0;3853;0;0;0;0;8;0;3870;0;0;0;0;9;0;2070;0;0;0;0
30.01.21;18:15:00;1;1167;9402;0;2;0;3443;0;0;0;0;3;0;2113;0;0;0;0;4;0;2934;0;0;0;0;5;0;0;0;0;0;0;0;0;6;0;5053;2;0;0;0;0;0;7;0;3853;0;0;0;0;8;0;3870;0;0;0;0;9;0;2070;0;0;0;0
30.01.21;18:10:00;1;904;9306;0;2;0;3443;0;0;0;0;3;0;2113;0;0;0;0;4;0;2934;0;0;0;0;5;0;0;0;0;0;0;0;0;6;0;5053;2;0;0;0;0;0;7;0;3853;0;0;0;0;8;0;3870;0;0;0;0;9;0;2070;0;0;0;0
30.01.21;18:05:00;1;885;9248;0;2;0;3443;0;0;0;0;3;0;2113;0;0;0;0;4;0;2934;0;0;0;0;5;0;0;0;0;0;0;0;0;6;0;5053;2;0;0;0;0;0;7;0;3853;0;0;0;0;8;0;3870;0;0;0;0;9;0;2070;0;0;0;0
30.01.21;18:00:00;1;758;9186;0;2;0;3443;0;0;0;0;3;0;2113;0;0;0;0;4;0;2934;0;0;0;0;5;0;0;0;0;0;0;0;0;6;0;5053;2;0;0;0;0;0;7;0;3853;0;0;0;0;8;0;3870;0;0;0;0;9;0;2070;0;0;0;0
30.01.21;17:55:00;1;615;9123;0;2;0;3443;0;0;0;0;3;0;2113;0;0;0;0;4;0;2934;0;0;0;0;5;0;0;0;0;0;0;0;0;6;0;5053;2;0;0;0;0;0;7;0;3853;0;0;0;0;8;0;3870;0;0;0;0;9;0;2070;0;0;0;0
30.01.21;17:50:00;1;468;9070;0;2;0;3443;0;0;0;0;3;0;2113;0;0;0;0;4;0;2934;0;0;0;0;5;0;0;0;0;0;0;0;0;6;0;5053;2;0;0;0;0;0;7;0;3853;0;0;0;0;8;0;3870;0;0;0;0;9;0;2070;0;0;0;0
30.01.21;17:45:00;1;469;9024;0;2;0;3443;0;0;0;0;3;0;2113;0;0;0;0;4;0;2934;0;0;0;0;5;0;0;0;0;0;0;0;0;6;0;5053;2;0;0;0;0;0;7;0;3853;0;0;0;0;8;0;3870;0;0;0;0;9;0;2070;0;0;0;0
30.01.21;17:40:00;1;521;8985;0;2;0;3443;0;0;0;0;3;0;2113;0;0;0;0;4;0;2934;0;0;0;0;5;0;0;0;0;0;0;0;0;6;0;5053;2;0;0;0;0;0;7;0;3853;0;0;0;0;8;0;3870;0;0;0;0;9;0;2070;0;0;0;0
30.01.21;17:35:00;1;687;8941;0;2;0;3443;0;0;0;0;3;0;2113;0;0;0;0;4;0;2934;0;0;0;0;5;0;0;0;0;0;0;0;0;6;0;5053;2;0;0;0;0;0;7;0;3853;0;0;0;0;8;0;3870;0;0;0;0;9;0;2070;0;0;0;0
30.01.21;17:30:00;1;601;8865;0;2;0;3443;0;0;0;0;3;0;2113;0;0;0;0;4;0;2934;0;0;0;0;5;0;0;0;0;0;0;0;0;6;0;5053;2;0;0;0;0;0;7;0;3853;0;0;0;0;8;0;3870;0;0;0;0;9;0;2070;0;0;0;0
30.01.21;17:25:00;1;500;8814;0;2;0;3443;0;0;0;0;3;0;2113;0;0;0;0;4;0;2934;0;0;0;0;5;0;0;0;0;0;0;0;0;6;0;5053;2;0;0;0;0;0;7;0;3853;0;0;0;0;8;0;3870;0;0;0;0;9;0;2070;0;0;0;0
30.01.21;17:20:00;1;482;8771;0;2;0;3443;0;0;0;0;3;0;2113;0;0;0;0;4;0;2934;0;0;0;0;5;0;0;0;0;0;0;0;0;6;0;5053;2;0;0;0;0;0;7;0;3853;0;0;0;0;8;0;3870;0;0;0;0;9;0;2070;0;0;0;0
30.01.21;17:15:00;1;557;8730;0;2;0;3443;0;0;129;5;3;0;2113;2;0;279;14;4;0;2934;0;0;0;0;5;0;0;0;0;0;0;0;0;6;0;5053;2;0;0;0;0;0;7;0;3853;0;0;0;0;8;0;3870;0;0;0;0;9;0;2070;0;0;0;0
30.01.21;17:10:00;1;603;8684;0;2;0;3443;6;0;287;11;3;0;2113;6;0;317;14;4;0;2934;0;0;63;10;5;0;0;0;0;0;0;0;0;6;0;5053;2;0;0;0;0;0;7;0;3853;0;0;0;0;8;0;3870;0;0;0;0;9;0;2070;0;0;0;0
30.01.21;17:05:00;1;630;8634;0;2;0;3443;6;0;318;11;3;0;2113;6;0;383;14;4;0;2934;1;0;101;12;5;0;0;0;0;0;0;0;0;6;0;5053;1;3;1;66;119;9;7;0;3853;0;0;0;0;8;0;3870;0;0;0;0;9;0;2070;0;0;36;1
30.01.21;17:00:00;1;778;8581;0;2;0;3443;6;0;352;12;3;0;2113;6;1;418;15;4;0;2934;1;0;143;13;5;0;0;0;0;0;0;0;0;6;0;5053;23;7;3;372;330;22;7;0;3853;2;0;277;16;8;0;3870;6;0;282;15;9;0;2070;6;0;299;11
30.01.21;16:55:00;1;656;8520;0;2;0;3443;6;0;374;12;3;0;2113;6;1;454;15;4;0;2934;1;0;178;13;5;0;0;0;0;0;0;0;0;6;0;5053;23;7;3;340;389;22;7;0;3853;6;0;337;16;8;0;3870;6;0;344;16;9;0;2070;6;0;363;12
30.01.21;16:50:00;1;683;8465;0;2;0;3443;6;0;392;12;3;0;2113;6;2;478;15;4;0;2934;1;0;211;14;5;0;0;0;0;0;0;0;0;6;0;5053;23;6;4;387;567;23;7;0;3853;6;0;400;17;8;0;3870;6;0;406;16;9;0;2070;6;0;428;12
30.01.21;16:45:00;1;667;8409;0;2;14;3443;6;24;398;12;3;5;2113;4;11;492;15;4;4;2934;3;4;199;14;5;0;0;0;0;0;0;0;0;6;54;5053;4;35;14;446;215;24;7;0;3853;6;0;483;17;8;0;3870;6;3;464;16;9;2;2070;4;6;488;12
30.01.21;16:40:00;1;550;8353;0;2;64;3442;4;94;366;13;3;10;2113;3;20;514;15;4;26;2933;3;27;198;14;5;0;0;0;0;0;0;0;0;6;92;5048;4;55;25;446;215;24;7;41;3853;4;78;390;17;8;43;3870;4;79;396;17;9;6;2070;3;14;522;12
30.01.21;16:35:00;1;586;8307;0;2;78;3437;4;108;372;13;3;12;2111;6;20;523;15;4;41;2931;3;42;198;14;5;0;0;0;0;0;0;0;0;6;104;5041;4;75;36;446;215;24;7;64;3849;4;91;410;17;8;61;3866;4;95;419;17;9;10;2069;6;16;532;12
30.01.21;16:30:00;1;621;8263;0;2;100;3430;4;130;365;13;3;29;2110;6;45;518;16;4;57;2928;3;59;198;14;5;0;0;0;0;0;0;0;0;6;121;5032;4;81;38;446;215;24;7;77;3844;4;106;384;17;8;74;3861;4;107;440;17;9;7;2068;6;10;556;12
30.01.21;16:25:00;1;547;8216;0;2;138;3422;4;170;375;13;3;80;2108;4;115;473;16;4;101;2923;3;105;217;14;5;0;0;0;0;0;0;0;0;6;157;5021;4;118;55;446;215;24;7;119;3837;4;152;432;17;8;122;3855;4;155;416;17;9;48;2068;6;66;491;13
30.01.21;16:20:00;1;516;8170;0;2;163;3410;4;197;384;13;3;96;2101;4;131;467;16;4;121;2915;5;126;226;14;5;0;0;0;0;0;0;0;0;6;177;5008;4;119;56;446;215;24;7;150;3827;4;187;434;17;8;149;3845;4;193;440;17;9;82;2064;4;109;479;13
30.01.21;16:15:00;1;497;8127;0;2;186;3397;4;219;381;13;3;108;2093;4;147;507;16;4;138;2904;5;143;230;14;5;0;0;0;0;0;0;0;0;6;195;4993;4;133;65;446;215;24;7;171;3815;4;214;463;17;8;176;3832;4;216;461;17;9;98;2057;4;125;483;13
30.01.21;16:10:00;1;549;8086;0;2;184;3381;4;218;378;14;3;106;2084;4;147;505;16;4;144;2893;5;150;226;14;5;0;0;0;0;0;0;0;0;6;193;4977;4;157;76;446;215;24;7;176;3800;4;214;462;17;8;172;3818;4;214;474;17;9;98;2049;4;128;497;13
30.01.21;16:05:00;1;549;8040;0;2;174;3366;4;208;378;14;3;100;2075;4;139;505;16;4;132;2881;5;137;224;14;5;0;0;0;0;0;0;0;0;6;182;4960;4;103;50;446;215;24;7;171;3786;4;202;468;17;8;166;3803;4;205;459;17;9;88;2041;4;119;509;13
30.01.21;16:00:00;1;607;7994;0;2;147;3351;4;178;380;14;3;83;2067;4;122;494;16;4;104;2870;5;108;214;14;5;0;0;0;0;0;0;0;0;6;163;4945;4;128;61;446;215;24;7;140;3771;4;176;455;17;8;141;3789;4;175;455;17;9;76;2033;4;104;467;13
30.01.21;15:55:00;1;545;7943;0;2;145;3339;4;178;378;14;3;85;2060;4;121;459;16;4;100;2861;3;104;222;15;5;0;0;0;0;0;0;0;0;6;162;4932;4;115;54;446;215;24;7;139;3760;4;167;417;17;8;126;3778;4;160;392;17;9;69;2027;4;96;460;13
30.01.21;15:50:00;1;535;7897;0;2;170;3327;4;206;382;14;3;102;2053;4;137;478;16;4;130;2853;5;135;224;15;5;0;0;0;0;0;0;0;0;6;219;4919;4;121;94;446;336;24;7;169;3748;4;200;435;17;8;159;3767;4;197;411;17;9;86;2021;4;112;472;13
30.01.21;15:45:00;1;536;7852;0;2;201;3313;4;237;382;14;3;117;2044;4;156;499;17;4;156;2842;5;163;229;15;5;0;0;0;0;0;0;0;0;6;340;4899;4;177;184;564;551;24;7;202;3734;4;234;438;17;8;197;3754;4;231;419;17;9;104;2014;4;134;507;14
30.01.21;15:40:00;1;618;7808;0;2;243;3296;4;279;390;14;3;148;2034;4;187;484;17;4;197;2829;5;205;227;15;5;0;0;0;0;0;0;0;0;6;406;4870;4;213;219;577;559;24;7;239;3717;4;283;455;18;8;247;3737;4;283;448;17;9;129;2005;4;159;507;14
30.01.21;15:35:00;1;543;7764;0;2;280;3276;4;315;387;14;3;170;2022;4;209;497;17;4;231;2813;5;241;233;15;5;0;0;0;0;0;0;0;0;6;461;4836;4;246;257;578;558;24;7;298;3697;4;328;461;18;8;296;3717;4;331;446;17;9;155;1995;4;188;512;14
30.01.21;15:30:00;1;540;7718;0;2;306;3253;4;344;394;14;3;188;2008;4;226;500;17;4;257;2793;5;267;234;15;5;0;0;0;0;0;0;0;0;6;499;4797;4;258;259;574;556;24;7;320;3672;4;365;459;18;8;326;3692;4;365;462;17;9;177;1982;4;209;518;14
30.01.21;15:25:00;1;516;7673;0;2;340;3227;4;381;398;15;3;210;1992;4;250;506;17;4;292;2772;5;304;235;15;5;0;0;0;0;0;0;0;0;6;552;4755;4;266;267;586;568;24;7;358;3646;4;401;471;18;8;364;3665;4;400;470;17;9;194;1967;4;226;512;14
30.01.21;15:20:00;1;554;7630;0;2;400;3199;4;442;403;15;3;247;1975;4;289;508;17;4;342;2748;5;356;237;15;5;0;0;0;0;0;0;0;0;6;637;4709;4;320;318;590;571;24;7;430;3616;4;461;463;18;8;419;3634;4;467;468;17;9;225;1951;4;262;506;14
30.01.21;15:15:00;1;554;7584;0;2;489;3165;4;535;398;15;3;306;1954;4;351;520;17;4;425;2719;5;442;242;15;5;0;0;0;0;0;0;0;0;6;765;4654;4;407;410;591;572;24;7;529;3580;4;578;459;18;8;536;3599;4;585;471;17;9;286;1932;4;326;537;14
30.01.21;15:10:00;1;564;7538;0;2;523;3125;4;566;400;15;3;323;1929;4;371;521;17;4;453;2684;5;472;243;15;5;0;0;0;0;0;0;0;0;6;811;4590;4;394;385;593;572;24;7;573;3536;4;619;474;18;8;570;3555;4;615;486;17;9;308;1908;4;346;535;14
30.01.21;15:05:00;1;534;7491;0;2;564;3081;4;610;407;15;3;350;1902;4;400;514;17;4;489;2646;5;509;241;15;5;0;0;0;0;0;0;0;0;6;862;4521;4;436;431;595;572;24;7;613;3488;4;662;490;18;8;619;3507;4;669;496;17;9;335;1882;4;376;530;14
30.01.21;15:00:00;1;567;7446;0;2;494;3034;4;536;400;15;3;311;1873;4;355;514;17;4;437;2605;5;455;238;15;5;0;0;0;0;0;0;0;0;6;777;4449;4;390;384;595;572;24;7;606;3437;4;661;483;18;8;615;3456;4;666;483;17;9;337;1855;4;376;526;14
30.01.21;14:55:00;1;550;7399;0;2;304;2993;4;341;388;15;3;186;1847;4;225;512;17;4;252;2569;5;263;235;15;5;0;0;0;0;0;0;0;0;6;503;4387;4;267;270;582;560;24;7;311;3387;4;359;471;18;8;319;3406;4;361;478;17;9;178;1827;4;210;505;14
30.01.21;14:50:00;1;519;7352;0;2;420;2967;4;462;398;15;3;260;1831;4;302;506;17;4;357;2547;5;371;236;15;5;0;0;0;0;0;0;0;0;6;671;4345;4;340;343;588;571;24;7;403;3359;4;448;475;18;8;407;3377;4;450;470;17;9;219;1811;4;251;515;14
30.01.21;14:45:00;1;647;7305;0;2;496;2932;4;540;406;15;3;310;1809;4;355;514;17;4;430;2518;5;447;239;15;5;0;0;0;0;0;0;0;0;6;792;4287;4;428;418;599;570;24;7;519;3325;4;565;478;18;8;530;3342;4;569;472;17;9;283;1792;4;320;526;14
30.01.21;14:40:00;1;675;7252;0;2;453;2891;4;497;401;15;3;281;1783;4;328;517;17;4;395;2482;5;411;239;15;5;0;0;0;0;0;0;0;0;6;735;4222;4;385;384;593;565;24;7;468;3282;4;517;477;18;8;480;3298;4;526;474;17;9;260;1769;4;296;519;14
30.01.21;14:35:00;1;575;7199;0;2;463;2853;4;505;398;15;3;289;1760;4;334;515;17;4;406;2449;5;423;236;15;5;0;0;0;0;0;0;0;0;6;749;4160;4;410;399;594;577;24;7;536;3243;4;576;473;18;8;542;3258;4;587;478;17;9;287;1747;4;327;522;14
30.01.21;14:30:00;1;808;7150;0;2;240;2814;4;275;384;15;3;146;1736;4;184;504;17;4;197;2415;5;205;230;15;5;0;0;0;0;0;0;0;0;6;410;4099;4;209;215;571;555;24;7;288;3199;4;319;452;18;8;287;3213;4;332;456;17;9;158;1723;4;189;505;14
30.01.21;14:25:00;1;1287;7081;0;2;274;2795;4;316;389;15;3;167;1724;4;206;504;17;4;227;2399;5;236;231;15;5;0;0;0;0;0;0;0;0;6;468;4066;4;253;261;583;555;24;7;266;3175;4;308;453;18;8;261;3190;4;307;471;17;9;142;1711;4;175;512;14
30.01.21;14:20:00;1;653;6976;0;2;433;2772;4;476;401;16;3;266;1710;4;308;505;17;4;368;2380;5;383;239;16;5;0;0;0;0;0;0;0;0;6;691;4026;4;358;350;596;571;24;7;452;3153;4;490;464;18;8;446;3168;4;488;467;17;9;241;1699;4;273;519;15
30.01.21;14:15:00;1;750;6922;0;2;476;2736;4;522;403;16;3;298;1687;4;345;508;18;4;414;2349;5;431;237;16;5;0;0;0;0;0;0;0;0;6;764;3966;4;382;376;595;562;24;7;524;3115;4;571;464;18;8;531;3131;4;581;468;17;9;286;1678;4;325;527;15
30.01.21;14:10:00;1;1198;6863;0;2;516;2696;4;562;405;16;3;322;1663;4;368;502;18;4;446;2314;5;465;239;16;5;0;0;0;0;0;0;0;0;6;834;3902;4;428;424;598;566;24;7;581;3071;4;618;464;18;8;572;3086;4;620;477;17;9;307;1654;4;347;521;15
30.01.21;14:05:00;1;746;6766;0;2;644;2653;4;695;408;16;3;403;1636;4;452;510;18;4;560;2277;5;584;239;16;5;0;0;0;0;0;0;0;0;6;1031;3831;4;537;530;595;570;24;7;729;3022;4;784;485;18;8;727;3038;4;781;477;17;9;392;1629;4;433;521;15
30.01.21;14:00:00;1;834;6699;0;2;929;2599;4;992;414;17;3;583;1602;4;641;532;18;4;824;2230;5;858;244;16;5;0;0;0;0;0;0;0;0;6;1444;3744;4;774;745;604;577;24;7;1065;2961;4;1134;485;17;8;1055;2978;4;1127;482;17;9;569;1596;4;621;530;15
30.01.21;13:55:00;1;801;6632;0;2;1626;2520;4;1718;422;16;3;1027;1553;4;1106;535;18;4;1436;2161;5;1496;252;15;5;0;0;0;0;0;0;0;0;6;2411;3617;4;1249;1203;618;590;24;7;1991;2871;4;2093;493;17;8;1983;2890;4;2087;495;17;9;1087;1548;4;1164;531;16
30.01.21;13:50:00;1;1141;6567;0;2;1777;2390;4;1871;430;15;3;1145;1470;4;1227;539;17;4;1584;2045;5;1650;259;15;5;0;0;0;0;0;0;0;0;6;2687;3413;4;1390;1340;622;593;24;7;2501;2713;4;2614;500;17;8;2498;2731;4;2617;500;16;9;1381;1461;4;1468;542;15
30.01.21;13:45:00;1;1193;6475;0;2;854;2243;4;905;410;14;3;543;1376;4;601;530;17;4;751;1915;5;782;247;14;5;0;0;0;0;0;0;0;0;6;1319;3198;4;657;635;614;579;24;7;1269;2507;4;1333;485;17;8;1284;2526;4;1356;498;16;9;700;1348;4;756;533;14
30.01.21;13:40:00;1;857;6379;0;2;600;2172;4;644;412;14;3;374;1331;4;424;522;17;4;505;1852;5;526;242;14;5;0;0;0;0;0;0;0;0;6;927;3093;4;454;446;614;579;24;7;762;2402;4;811;487;17;8;756;2419;4;806;486;16;9;399;1290;4;441;530;14